Home > Weather > Talcahuano > Past weeks

Flag for Chile Past Weather in Talcahuano, Chile — Yesterday and Last 2 Weeks

Now
43 °F

Fog.


Feels Like: 43 °F
Forecast: 47 / 53 °F
Wind: 2 mph from Southwest

Location: Concepcion Airport

Current Time: Jul 1, 2016 at 8:28:10 PM

Latest Report: Jul 1, 2016 at 8:00 PM


Visibility: 3 mi

Pressure: 29.98 "Hg

Humidity: 93%

Dew Point: 41 °F

Location of TalcahuanoLocation

Past Weather in Talcahuano — Graph

°F

Talcahuano Temperature Yesterday

Maximum temperature yesterday: 52 °F (at 2:00 PM)
Minimum temperature yesterday: 39 °F (at 8:00 AM)
Average temperature yesterday: 44 °F

High & Low Weather Summary for the Past Weeks

 TemperatureHumidityPressure
High61 °F (Jun 17, 2:00 PM)100% (Jun 17, 10:00 PM)30.27 "Hg (Jun 17, 10:00 PM)
Low34 °F (Jul 1, 6:00 AM)47% (Jun 25, 1:00 PM)29.95 "Hg (Jun 28, 4:00 PM)
Average47 °F87%30.11 "Hg
* Reported Jun 16 7:00 PM — Jul 1 7:00 PM, Talcahuano, Weather by CustomWeather, © 2016

Note: Actual official high and low records may vary slightly from our data, if they occured in-between our weather recording intervals... More about our weather records

Advertising

Talcahuano Weather History for the Previous 24 Hours

Scroll right to see more
 ConditionsComfort  
Time TempWeatherWind HumidityBarometerVisibility
7:00 PM
Fri, Jul 1
45 °FClear.No wind93%29.95 "Hg10 mi
6:00 PM46 °FClear.3 mph87%29.95 "Hg10 mi
5:00 PM50 °FPassing clouds.7 mph76%29.95 "HgN/A
4:00 PM52 °FSunny.7 mph82%29.95 "Hg10 mi
3:00 PM52 °FSunny.8 mph72%29.98 "Hg10 mi
2:00 PM54 °FSunny.10 mph58%29.98 "Hg10 mi
1:00 PM52 °FSunny.3 mph62%30.01 "Hg10 mi
12:00 PM50 °FPassing clouds.6 mph62%30.01 "HgN/A
11:00 AM46 °FPassing clouds.5 mph71%30.04 "HgN/A
10:00 AM41 °FSunny.5 mph81%30.04 "Hg10 mi
9:00 AM36 °FPassing clouds.5 mph93%30.04 "HgN/A
8:00 AM34 °FSunny.7 mph93%30.04 "Hg10 mi
7:00 AM34 °FPassing clouds.7 mph100%30.04 "HgN/A
6:00 AM34 °FClear.5 mph100%30.04 "Hg10 mi
5:00 AM36 °FFog.2 mph93%30.04 "Hg4 mi
4:00 AM36 °FPassing clouds.6 mph93%30.04 "HgN/A
3:00 AM36 °FClear.5 mph100%30.04 "Hg10 mi
2:00 AM37 °FClear.8 mph93%30.04 "Hg10 mi
1:00 AM37 °FClear.3 mph93%30.07 "Hg10 mi
12:00 AM39 °FPassing clouds.5 mph93%30.07 "HgN/A
11:00 PM
Thu, Jun 30
41 °FClear.3 mph93%30.07 "Hg10 mi
10:00 PM41 °FClear.3 mph93%30.07 "Hg10 mi
9:00 PM43 °FClear.3 mph93%30.07 "Hg10 mi
8:00 PM45 °FClear.3 mph93%30.07 "Hg5 mi
Weather by CustomWeather, © 2016

See weather overviewHow to use our weather pages